Location: Pisa
(43.7170°N, 10.3830°E)
Time: 08:48:57
(UTC+02:00)

ISS - Pass Details

Date: 13 May 2021
Orbit: 417 x 422 km, 51.6° (Epoch: 23 June)

Event Time Altitude Azimuth Distance (km) Brightness Sun altitude
Rises 05:14:11 0° 300° (WNW) 2,375 -0.2 -7.2°
Reaches altitude 10° 05:16:18 10° 298° (WNW) 1,509 -1.2 -6.9°
Maximum altitude 05:19:39 66° 216° (SW) 463 -3.8 -6.4°
Drops below altitude 10° 05:23:00 10° 133° (SE) 1,502 -0.7 -5.9°
Sets 05:25:06 0° 131° (SE) 2,363 0.3 -5.6°
